Gloucester City, NJ (08030)

4:22 AM EST on December 25, 2014 (GMT -0500)
West Collingswood Theatre District | Change Station
CLOSE
Current Station
Personal Weather Station
Location: Collingswood, NJ
Elevation: 23 ft
Nearby Weather Stations
Active Advisory: Special Statement Active Notice: Record Report

Elev 23 ft 39.91 °N, 75.09 °W | Updated 2 minutes ago

Rain
Rain
57.5 °F
Feels Like 57.5 °F
N
6.0
Wind Variable Wind from West
Gusts 12.0 mph

Today
High -- | Low -- °F
--% Chance of Precip.
Yesterday
High -- | Low -- °F
Precip. -- in
7:20 AM 4:41 PM
Waxing Crescent, 15% visible
Pressure 29.61 in
Visibility 10.0 miles
Clouds Few 2000 ft
Overcast 3600 ft
Dew Point 48 °F
Humidity 72%
Rainfall 0.02 in
Snow Depth Not available.
UV 0 out of 12
Pollen .10 out of 12
Air Quality Not available.
Flu Activity Not available.
METAR KPHL 250854Z 30013KT 10SM -RA FEW020 OVC036 15/09 A2961 RMK AO2 RAB0756E08B20 SLP026 P0000 60000 T01500094 53024

More Conditions Fewer Conditions

Pressure 29.61 in
Visibility 10.0 miles
Clouds Few 2000 ft
Overcast 3600 ft
Dew Point 48 °F
Humidity 72%
Rainfall 0.02 in
Snow Depth Not available.
UV 0 out of 12
Pollen .10 out of 12
Air Quality Not available.
Flu Activity Not available.
METAR KPHL 250854Z 30013KT 10SM -RA FEW020 OVC036 15/09 A2961 RMK AO2 RAB0756E08B20 SLP026 P0000 60000 T01500094 53024

More Conditions Fewer Conditions

Nowcast | as of 2:06 am EST on December 25, 2014

Between now and 5 am, a cold front will clear most of the region. As it moves through, gusty west winds will occur with peak gusts reaching between 30 and 40 mph. Motorists and tractor trailer drivers are advised to be alert for an increase in winds, especially while crossing bridges and overpasses. In addition, an area of rain will be moving through the region and cause some ponding in poor drainage areas.

×

10-Day Weather Forecast

Almanac

Astronomy

Dec. 25, 2014 Rise Set
Actual Time
Civil Twilight
Nautical Twilight
Astronomical Twilight
Moon
Length of Visible Light
Length of Day
Tomorrow will be .
, % of the Moon is Illuminated

Today's Extremes

State Highs State Lows

Community

WunderPhotos

Upload Photos

1,780,252 photos uploaded!

WunderBlogs® & News

Nearby

Air Quality

  Air Quality AQ Index Pollutant
Not available.

Snow Depth

Station Depth Elevation

Earthquake Activity

City Distance Mag. Time & Date
Minimum magnitude displayed is 2.5.

Coastal Water Temperatures

Place Temperature

Nearby Weather Stations